User: anonymous   Login
Location: Adamstown South Public School
(32.9318°S, 151.7012°E)
Time: 17:32:48
(UTC+00:00)
Language:

Cosmos 405 Rocket - Orbit

View from above orbital plane
View from above orbital plane
View from above satellite
View from above satellite

Ground track
Ground track

The orbit data is extracted from the following two-line orbital elements,

1  5118U 71028B   20228.53167895  .00000825  00000-0  42058-4 0  9999
2  5118  81.2538 268.4661 0046961   6.8745 353.3116 15.14633523679044
Epoch (UTC): 15 August 2020 12:45:37
Eccentricity: 0.0046961
inclination: 81.2538°
perigee height: 489 km
apogee height: 554 km
right ascension of ascending node: 268.4661°
argument of perigee: 6.8745°
revolutions per day: 15.14633523
mean anomaly at epoch: 353.3116°
orbit number at epoch: 67904

The dashed part of the orbit path shows where the satellite is in the earth's shadow,  

DLR